SL-3 R/B

Last updated on Wed Jul 02 2025 00:02:14 GMT+0000 (Coordinated Universal Time)

1 19046U 88032B 25182.54447327 .00003705 00000+0 19085-3 0 9995 2 19046 97.4879 162.8789 0028784 31.0635 329.2292 15.16660842 14007
UTC large
Height (km)
Speed (km/s)
/
Latitude / Longitude
Inclination (degrees)
Orbital Period (minutes)
Azimuth
Elevation
Range (km)
Doppler Factor

Next 0 passes for location: London (51.5072 / 0.1276)

Sorry there are no passes over London.